Location: Abraham Lincoln Continuation High School
(33.9711°N, 117.3662°W)
Time: 04:38:45
(UTC+00:00)

USA 234 - Pass Details

Date: 21 September 2020
Orbit: 1102 x 1106 km, 123.0° (Epoch: 16 October)

Event Time Altitude Azimuth Distance (km) Brightness Sun altitude
Rises 02:06:57 0° 59° (ENE) 3,922 5.7 -4.7°
Reaches altitude 10° 02:10:06 10° 74° (ENE) 2,961 4.9 -5.4°
Maximum altitude 02:14:59 22° 122° (ESE) 2,187 4.4 -6.4°
Drops below altitude 10° 02:19:50 10° 171° (S) 2,953 5.4 -7.4°
Sets 02:22:56 0° 186° (S) 3,907 6.2 -8.0°
